Time,TemperatureF,DewpointF,PressureIn,WindDirection,WindDirectionDegrees,WindSpeedMPH,WindSpeedGustMPH,Humidity,HourlyPrecipIn,Conditions,Clouds,dailyrainin,SolarRadiationWatts/m^2,SoftwareType,DateUTC
2015-07-30 00:01:00,68.4,62.7,30.07,West,265,0.0,0.0,82,0.00,,,0.00,0.00,VWS V14.00,2015-07-30 05:01:00,
2015-07-30 00:06:00,68.3,62.6,30.07,West,265,0.0,0.0,82,0.00,,,0.00,0.00,VWS V14.00,2015-07-30 05:06:00,
2015-07-30 00:11:00,68.2,62.5,30.07,West,265,0.0,0.0,82,0.00,,,0.00,0.00,VWS V14.00,2015-07-30 05:11:00,
2015-07-30 00:16:00,68.1,62.4,30.07,West,265,0.0,0.0,82,0.00,,,0.00,0.00,VWS V14.00,2015-07-30 05:16:00,
2015-07-30 00:21:00,68.1,62.4,30.07,West,265,0.0,0.0,82,0.00,,,0.00,0.00,VWS V14.00,2015-07-30 05:21:00,
2015-07-30 00:26:00,68.1,62.4,30.07,West,265,0.0,0.0,82,0.00,,,0.00,0.00,VWS V14.00,2015-07-30 05:26:00,
2015-07-30 00:31:00,68.0,62.3,30.07,West,265,0.0,0.0,82,0.00,,,0.00,0.00,VWS V14.00,2015-07-30 05:31:00,
2015-07-30 00:36:00,67.9,62.2,30.07,West,265,0.0,1.0,82,0.00,,,0.00,0.00,VWS V14.00,2015-07-30 05:36:00,
2015-07-30 00:41:00,67.9,62.2,30.07,West,265,0.0,0.0,82,0.00,,,0.00,0.00,VWS V14.00,2015-07-30 05:41:00,
2015-07-30 00:46:00,67.9,62.2,30.07,WSW,242,0.0,4.0,82,0.00,,,0.00,0.00,VWS V14.00,2015-07-30 05:46:00,
2015-07-30 00:51:00,67.9,62.2,30.07,WSW,241,0.0,0.0,82,0.00,,,0.00,0.00,VWS V14.00,2015-07-30 05:51:00,
2015-07-30 00:56:00,67.9,62.2,30.07,WSW,251,0.0,2.0,82,0.00,,,0.00,0.00,VWS V14.00,2015-07-30 05:56:00,
2015-07-30 01:01:00,67.9,62.2,30.08,WSW,251,0.0,1.0,82,0.00,,,0.00,0.00,VWS V14.00,2015-07-30 06:01:00,
2015-07-30 01:06:00,67.9,61.9,30.07,WSW,255,0.0,1.0,81,0.00,,,0.00,0.00,VWS V14.00,2015-07-30 06:06:00,
2015-07-30 01:11:00,67.9,62.2,30.07,WSW,251,0.0,1.0,82,0.00,,,0.00,0.00,VWS V14.00,2015-07-30 06:11:00,
2015-07-30 01:16:00,67.9,61.9,30.07,WSW,250,0.0,3.0,81,0.00,,,0.00,0.00,VWS V14.00,2015-07-30 06:16:00,
2015-07-30 01:21:00,67.8,61.8,30.07,WSW,249,0.0,0.0,81,0.00,,,0.00,0.00,VWS V14.00,2015-07-30 06:21:00,
2015-07-30 01:26:00,67.7,61.7,30.07,SW,229,0.0,5.0,81,0.00,,,0.00,0.00,VWS V14.00,2015-07-30 06:26:00,
2015-07-30 01:31:00,67.7,61.7,30.07,SW,229,0.0,0.0,81,0.00,,,0.00,0.00,VWS V14.00,2015-07-30 06:31:00,
2015-07-30 01:36:00,67.6,61.6,30.07,SW,229,0.0,0.0,81,0.00,,,0.00,0.00,VWS V14.00,2015-07-30 06:36:00,
2015-07-30 01:41:00,67.6,61.6,30.07,WNW,294,0.0,6.0,81,0.00,,,0.00,0.00,VWS V14.00,2015-07-30 06:41:00,
2015-07-30 01:46:00,67.5,61.5,30.07,WNW,292,0.0,0.0,81,0.00,,,0.00,0.00,VWS V14.00,2015-07-30 06:46:00,
2015-07-30 01:51:00,67.5,61.5,30.07,West,278,0.0,1.0,81,0.00,,,0.00,0.00,VWS V14.00,2015-07-30 06:51:00,
2015-07-30 01:56:00,67.5,61.5,30.07,West,278,0.0,0.0,81,0.00,,,0.00,0.00,VWS V14.00,2015-07-30 06:56:00,
2015-07-30 02:01:00,67.3,61.6,30.08,WSW,242,0.0,0.0,82,0.00,,,0.00,0.00,VWS V14.00,2015-07-30 07:01:00,
2015-07-30 02:06:00,67.2,61.5,30.07,WNW,283,0.0,2.0,82,0.00,,,0.00,0.00,VWS V14.00,2015-07-30 07:06:00,
2015-07-30 02:11:00,67.1,61.4,30.07,WNW,284,0.0,0.0,82,0.00,,,0.00,0.00,VWS V14.00,2015-07-30 07:11:00,
2015-07-30 02:16:00,66.9,61.2,30.07,WNW,283,0.0,0.0,82,0.00,,,0.00,0.00,VWS V14.00,2015-07-30 07:16:00,
2015-07-30 02:21:00,66.8,61.1,30.07,West,279,0.0,1.0,82,0.00,,,0.00,0.00,VWS V14.00,2015-07-30 07:21:00,
2015-07-30 02:26:00,66.7,61.0,30.07,West,272,1.0,1.0,82,0.00,,,0.00,0.00,VWS V14.00,2015-07-30 07:26:00,
2015-07-30 02:31:00,66.8,61.1,30.07,West,273,0.0,0.0,82,0.00,,,0.00,0.00,VWS V14.00,2015-07-30 07:31:00,
2015-07-30 02:36:00,66.7,61.0,30.07,West,272,0.0,0.0,82,0.00,,,0.00,0.00,VWS V14.00,2015-07-30 07:36:00,
2015-07-30 02:41:00,66.5,61.2,30.07,West,272,0.0,0.0,83,0.00,,,0.00,0.00,VWS V14.00,2015-07-30 07:41:00,
2015-07-30 02:46:00,66.3,61.0,30.07,West,273,0.0,0.0,83,0.00,,,0.00,0.00,VWS V14.00,2015-07-30 07:46:00,
2015-07-30 02:51:00,66.0,60.7,30.07,West,275,0.0,2.0,83,0.00,,,0.00,0.00,VWS V14.00,2015-07-30 07:51:00,
2015-07-30 02:56:00,65.8,60.8,30.07,WNW,292,0.0,2.0,84,0.00,,,0.00,0.00,VWS V14.00,2015-07-30 07:56:00,
2015-07-30 03:01:00,65.8,60.8,30.07,WNW,284,0.0,4.0,84,0.00,,,0.00,0.00,VWS V14.00,2015-07-30 08:01:00,
2015-07-30 03:06:00,65.8,60.8,30.08,WNW,286,0.0,3.0,84,0.00,,,0.00,0.00,VWS V14.00,2015-07-30 08:06:00,
2015-07-30 03:11:00,65.8,60.8,30.07,WNW,298,0.0,5.0,84,0.00,,,0.00,0.00,VWS V14.00,2015-07-30 08:11:00,
2015-07-30 03:16:00,65.8,60.5,30.07,WNW,285,0.0,6.0,83,0.00,,,0.00,0.00,VWS V14.00,2015-07-30 08:16:00,
2015-07-30 03:21:00,65.7,60.4,30.07,NW,304,0.0,4.0,83,0.00,,,0.00,0.00,VWS V14.00,2015-07-30 08:21:00,
2015-07-30 03:26:00,65.7,60.7,30.07,WNW,288,0.0,3.0,84,0.00,,,0.00,0.00,VWS V14.00,2015-07-30 08:26:00,
2015-07-30 03:31:00,65.6,60.6,30.08,WNW,288,0.0,0.0,84,0.00,,,0.00,0.00,VWS V14.00,2015-07-30 08:31:00,
2015-07-30 03:36:00,65.4,60.5,30.08,WNW,288,0.0,1.0,84,0.00,,,0.00,0.00,VWS V14.00,2015-07-30 08:36:00,
2015-07-30 03:41:00,65.2,60.2,30.08,WNW,288,0.0,0.0,84,0.00,,,0.00,0.00,VWS V14.00,2015-07-30 08:41:00,
2015-07-30 03:46:00,65.0,60.0,30.08,WNW,288,0.0,2.0,84,0.00,,,0.00,0.00,VWS V14.00,2015-07-30 08:46:00,
2015-07-30 03:51:00,64.9,60.3,30.08,WNW,287,0.0,2.0,85,0.00,,,0.00,0.00,VWS V14.00,2015-07-30 08:51:00,
2015-07-30 03:56:00,64.7,60.1,30.08,WNW,287,0.0,0.0,85,0.00,,,0.00,0.00,VWS V14.00,2015-07-30 08:56:00,
2015-07-30 04:01:00,64.7,60.1,30.08,West,277,0.0,5.0,85,0.00,,,0.00,0.00,VWS V14.00,2015-07-30 09:01:00,
2015-07-30 04:06:00,64.6,60.0,30.08,West,277,0.0,0.0,85,0.00,,,0.00,0.00,VWS V14.00,2015-07-30 09:06:00,
2015-07-30 04:16:00,64.7,59.8,30.08,West,279,0.0,1.0,84,0.00,,,0.00,0.00,VWS V14.00,2015-07-30 09:16:00,
2015-07-30 04:21:00,64.8,59.9,30.08,WNW,291,0.0,4.0,84,0.00,,,0.00,0.00,VWS V14.00,2015-07-30 09:21:00,
2015-07-30 04:26:00,64.8,59.9,30.08,WNW,291,0.0,0.0,84,0.00,,,0.00,0.00,VWS V14.00,2015-07-30 09:26:00,
2015-07-30 04:31:00,64.8,59.9,30.08,WNW,290,0.0,0.0,84,0.00,,,0.00,0.00,VWS V14.00,2015-07-30 09:31:00,
2015-07-30 04:36:00,64.7,59.8,30.08,West,279,0.0,3.0,84,0.00,,,0.00,0.00,VWS V14.00,2015-07-30 09:36:00,
2015-07-30 04:41:00,64.6,59.7,30.08,WNW,286,0.0,3.0,84,0.00,,,0.00,0.00,VWS V14.00,2015-07-30 09:41:00,
2015-07-30 04:46:00,64.5,59.6,30.08,WNW,284,0.0,4.0,84,0.00,,,0.00,0.00,VWS V14.00,2015-07-30 09:46:00,
2015-07-30 04:51:00,64.4,59.5,30.08,WNW,283,0.0,4.0,84,0.00,,,0.00,0.00,VWS V14.00,2015-07-30 09:51:00,
2015-07-30 04:56:00,64.3,59.4,30.08,WNW,284,0.0,0.0,84,0.00,,,0.00,0.00,VWS V14.00,2015-07-30 09:56:00,
2015-07-30 05:01:00,64.2,59.3,30.08,WNW,284,0.0,0.0,84,0.00,,,0.00,0.00,VWS V14.00,2015-07-30 10:01:00,
2015-07-30 05:06:00,64.1,59.2,30.08,WNW,284,0.0,3.0,84,0.00,,,0.00,0.00,VWS V14.00,2015-07-30 10:06:00,
2015-07-30 05:11:00,64.0,59.4,30.08,WNW,284,0.0,1.0,85,0.00,,,0.00,0.00,VWS V14.00,2015-07-30 10:11:00,
2015-07-30 05:16:00,63.9,59.3,30.08,WNW,283,0.0,0.0,85,0.00,,,0.00,0.00,VWS V14.00,2015-07-30 10:16:00,
2015-07-30 05:21:00,63.7,59.1,30.08,WNW,284,0.0,1.0,85,0.00,,,0.00,0.00,VWS V14.00,2015-07-30 10:21:00,
2015-07-30 05:26:00,63.5,58.9,30.08,WNW,283,0.0,1.0,85,0.00,,,0.00,0.00,VWS V14.00,2015-07-30 10:26:00,
2015-07-30 05:31:00,63.3,59.0,30.08,WNW,283,0.0,0.0,86,0.00,,,0.00,0.00,VWS V14.00,2015-07-30 10:31:00,
2015-07-30 05:36:00,63.1,58.8,30.08,WNW,284,0.0,0.0,86,0.00,,,0.00,0.00,VWS V14.00,2015-07-30 10:36:00,
2015-07-30 05:41:00,63.0,58.8,30.09,WNW,284,0.0,0.0,86,0.00,,,0.00,0.00,VWS V14.00,2015-07-30 10:41:00,
2015-07-30 05:46:00,63.0,58.8,30.09,WNW,284,0.0,0.0,86,0.00,,,0.00,0.00,VWS V14.00,2015-07-30 10:46:00,
2015-07-30 05:56:00,62.9,58.3,30.08,West,281,0.0,0.0,85,0.00,,,0.00,0.00,VWS V14.00,2015-07-30 10:56:00,
2015-07-30 06:01:00,63.1,58.5,30.08,West,280,0.0,0.0,85,0.00,,,0.00,0.00,VWS V14.00,2015-07-30 11:01:00,
2015-07-30 06:06:00,63.2,58.6,30.08,West,280,0.0,1.0,85,0.00,,,0.00,0.00,VWS V14.00,2015-07-30 11:06:00,
2015-07-30 06:11:00,63.2,58.3,30.09,West,280,0.0,0.0,84,0.00,,,0.00,5.00,VWS V14.00,2015-07-30 11:11:00,
2015-07-30 06:16:00,63.2,58.3,30.09,West,279,0.0,0.0,84,0.00,,,0.00,7.00,VWS V14.00,2015-07-30 11:16:00,
2015-07-30 06:21:00,63.2,58.6,30.09,West,280,0.0,0.0,85,0.00,,,0.00,11.00,VWS V14.00,2015-07-30 11:21:00,
2015-07-30 06:26:00,63.1,58.5,30.09,West,280,0.0,0.0,85,0.00,,,0.00,14.00,VWS V14.00,2015-07-30 11:26:00,
2015-07-30 06:31:00,63.1,58.5,30.09,West,279,0.0,1.0,85,0.00,,,0.00,23.00,VWS V14.00,2015-07-30 11:31:00,
2015-07-30 06:36:00,63.2,58.3,30.09,West,281,0.0,1.0,84,0.00,,,0.00,23.00,VWS V14.00,2015-07-30 11:36:00,
2015-07-30 06:41:00,63.4,58.5,30.09,West,281,0.0,0.0,84,0.00,,,0.00,23.00,VWS V14.00,2015-07-30 11:41:00,
2015-07-30 06:46:00,63.6,58.7,30.09,West,281,0.0,1.0,84,0.00,,,0.00,39.00,VWS V14.00,2015-07-30 11:46:00,
2015-07-30 06:51:00,63.9,59.0,30.09,WNW,284,0.0,1.0,84,0.00,,,0.00,53.00,VWS V14.00,2015-07-30 11:51:00,
2015-07-30 06:56:00,64.1,58.8,30.09,WNW,283,0.0,1.0,83,0.00,,,0.00,76.00,VWS V14.00,2015-07-30 11:56:00,
2015-07-30 07:01:00,64.4,59.1,30.09,WNW,284,0.0,0.0,83,0.00,,,0.00,88.00,VWS V14.00,2015-07-30 12:01:00,
2015-07-30 07:06:00,64.7,59.4,30.09,WNW,284,0.0,1.0,83,0.00,,,0.00,102.00,VWS V14.00,2015-07-30 12:06:00,
2015-07-30 07:11:00,65.2,59.6,30.09,WNW,285,0.0,3.0,82,0.00,,,0.00,118.00,VWS V14.00,2015-07-30 12:11:00,
2015-07-30 07:16:00,65.5,59.9,30.09,WNW,284,0.0,0.0,82,0.00,,,0.00,134.00,VWS V14.00,2015-07-30 12:16:00,
2015-07-30 07:21:00,65.7,60.1,30.09,WNW,285,1.0,3.0,82,0.00,,,0.00,149.00,VWS V14.00,2015-07-30 12:21:00,
2015-07-30 07:26:00,65.9,59.9,30.09,WNW,284,0.0,2.0,81,0.00,,,0.00,169.00,VWS V14.00,2015-07-30 12:26:00,
2015-07-30 07:31:00,66.3,60.3,30.09,WNW,285,0.0,4.0,81,0.00,,,0.00,186.00,VWS V14.00,2015-07-30 12:31:00,
2015-07-30 07:36:00,66.6,60.6,30.09,WNW,284,0.0,1.0,81,0.00,,,0.00,204.00,VWS V14.00,2015-07-30 12:36:00,
2015-07-30 07:41:00,66.9,60.5,30.09,WNW,288,0.0,4.0,80,0.00,,,0.00,220.00,VWS V14.00,2015-07-30 12:41:00,
2015-07-30 07:46:00,67.3,60.9,30.09,WNW,286,3.0,4.0,80,0.00,,,0.00,236.00,VWS V14.00,2015-07-30 12:46:00,
2015-07-30 07:51:00,67.7,61.0,30.09,WNW,287,2.0,3.0,79,0.00,,,0.00,251.00,VWS V14.00,2015-07-30 12:51:00,
2015-07-30 07:56:00,68.2,61.5,30.09,NNW,328,0.0,4.0,79,0.00,,,0.00,267.00,VWS V14.00,2015-07-30 12:56:00,
2015-07-30 08:01:00,68.4,61.6,30.09,West,281,0.0,5.0,79,0.00,,,0.00,283.00,VWS V14.00,2015-07-30 13:01:00,
2015-07-30 08:11:00,69.1,61.6,30.09,WNW,289,0.0,7.0,77,0.00,,,0.00,315.00,VWS V14.00,2015-07-30 13:11:00,
2015-07-30 08:16:00,69.4,61.5,30.09,West,267,0.0,8.0,76,0.00,,,0.00,327.00,VWS V14.00,2015-07-30 13:16:00,
2015-07-30 08:26:00,69.8,61.5,30.10,West,280,3.0,9.0,75,0.00,,,0.00,357.00,VWS V14.00,2015-07-30 13:26:00,
2015-07-30 08:31:00,70.1,61.4,30.10,SSW,213,1.0,4.0,74,0.00,,,0.00,371.00,VWS V14.00,2015-07-30 13:31:00,
2015-07-30 08:36:00,70.5,61.4,30.10,West,279,5.0,7.0,73,0.00,,,0.00,387.00,VWS V14.00,2015-07-30 13:36:00,
2015-07-30 08:41:00,70.8,61.7,30.10,West,281,0.0,12.0,73,0.00,,,0.00,403.00,VWS V14.00,2015-07-30 13:41:00,
2015-07-30 08:46:00,70.9,61.0,30.10,NNW,348,0.0,9.0,71,0.00,,,0.00,418.00,VWS V14.00,2015-07-30 13:46:00,
2015-07-30 08:56:00,71.6,62.1,30.10,WNW,294,5.0,10.0,72,0.00,,,0.00,443.00,VWS V14.00,2015-07-30 13:56:00,
2015-07-30 09:01:00,72.0,62.1,30.10,WNW,295,0.0,0.0,71,0.00,,,0.00,459.00,VWS V14.00,2015-07-30 14:01:00,
2015-07-30 09:06:00,72.4,62.5,30.10,West,281,0.0,0.0,71,0.00,,,0.00,471.00,VWS V14.00,2015-07-30 14:06:00,
2015-07-30 09:11:00,72.5,62.2,30.10,SW,220,0.0,11.0,70,0.00,,,0.00,485.00,VWS V14.00,2015-07-30 14:11:00,
2015-07-30 09:16:00,72.7,63.2,30.10,WNW,288,5.0,5.0,72,0.00,,,0.00,501.00,VWS V14.00,2015-07-30 14:16:00,
2015-07-30 09:21:00,72.9,62.1,30.10,NW,317,4.0,10.0,69,0.00,,,0.00,513.00,VWS V14.00,2015-07-30 14:21:00,
2015-07-30 09:26:00,73.3,63.7,30.10,WNW,288,0.0,7.0,72,0.00,,,0.00,526.00,VWS V14.00,2015-07-30 14:26:00,
2015-07-30 09:31:00,73.8,63.4,30.11,NW,318,0.0,8.0,70,0.00,,,0.00,541.00,VWS V14.00,2015-07-30 14:31:00,
2015-07-30 09:36:00,74.2,63.4,30.11,WNW,286,6.0,9.0,69,0.00,,,0.00,555.00,VWS V14.00,2015-07-30 14:36:00,
2015-07-30 09:41:00,74.6,63.8,30.11,West,270,0.0,8.0,69,0.00,,,0.00,568.00,VWS V14.00,2015-07-30 14:41:00,
2015-07-30 09:46:00,74.8,63.1,30.10,SSE,155,4.0,4.0,67,0.00,,,0.00,578.00,VWS V14.00,2015-07-30 14:46:00,
2015-07-30 09:51:00,75.0,63.3,30.11,West,275,3.0,3.0,67,0.00,,,0.00,594.00,VWS V14.00,2015-07-30 14:51:00,
2015-07-30 09:56:00,75.3,63.6,30.11,West,264,0.0,6.0,67,0.00,,,0.00,606.00,VWS V14.00,2015-07-30 14:56:00,
2015-07-30 10:01:00,75.8,64.5,30.11,WNW,295,4.0,6.0,68,0.00,,,0.00,617.00,VWS V14.00,2015-07-30 15:01:00,
2015-07-30 10:06:00,76.3,64.6,30.11,SW,234,0.0,10.0,67,0.00,,,0.00,629.00,VWS V14.00,2015-07-30 15:06:00,
2015-07-30 10:11:00,76.5,63.9,30.11,WSW,252,2.0,8.0,65,0.00,,,0.00,642.00,VWS V14.00,2015-07-30 15:11:00,
2015-07-30 10:16:00,76.8,65.0,30.11,SSW,213,0.0,10.0,67,0.00,,,0.00,654.00,VWS V14.00,2015-07-30 15:16:00,
2015-07-30 10:21:00,77.1,64.4,30.11,West,279,0.0,9.0,65,0.00,,,0.00,666.00,VWS V14.00,2015-07-30 15:21:00,
2015-07-30 10:26:00,77.5,64.4,30.11,West,279,3.0,13.0,64,0.00,,,0.00,677.00,VWS V14.00,2015-07-30 15:26:00,
2015-07-30 10:31:00,77.9,66.1,30.11,NNW,334,2.0,9.0,67,0.00,,,0.00,687.00,VWS V14.00,2015-07-30 15:31:00,
2015-07-30 10:36:00,78.5,66.6,30.11,WNW,298,0.0,9.0,67,0.00,,,0.00,700.00,VWS V14.00,2015-07-30 15:36:00,
2015-07-30 10:41:00,78.8,64.2,30.11,WNW,298,5.0,10.0,61,0.00,,,0.00,708.00,VWS V14.00,2015-07-30 15:41:00,
2015-07-30 10:46:00,79.1,65.4,30.11,NW,323,2.0,7.0,63,0.00,,,0.00,719.00,VWS V14.00,2015-07-30 15:46:00,
2015-07-30 10:51:00,79.3,64.7,30.12,NW,315,0.0,10.0,61,0.00,,,0.00,729.00,VWS V14.00,2015-07-30 15:51:00,
2015-07-30 10:56:00,79.9,65.3,30.11,WNW,303,0.0,9.0,61,0.00,,,0.00,780.00,VWS V14.00,2015-07-30 15:56:00,
2015-07-30 11:01:00,80.1,65.9,30.11,NNW,344,0.0,4.0,62,0.00,,,0.00,766.00,VWS V14.00,2015-07-30 16:01:00,
2015-07-30 11:06:00,79.9,63.8,30.11,SSW,209,0.0,6.0,58,0.00,,,0.00,754.00,VWS V14.00,2015-07-30 16:06:00,
2015-07-30 11:11:00,79.6,64.5,30.12,West,267,11.0,11.0,60,0.00,,,0.00,763.00,VWS V14.00,2015-07-30 16:11:00,
2015-07-30 11:16:00,79.9,65.7,30.12,West,271,6.0,6.0,62,0.00,,,0.00,768.00,VWS V14.00,2015-07-30 16:16:00,
2015-07-30 11:21:00,80.2,64.6,30.12,NW,307,9.0,9.0,59,0.00,,,0.00,780.00,VWS V14.00,2015-07-30 16:21:00,
2015-07-30 11:26:00,80.5,64.9,30.11,West,277,2.0,13.0,59,0.00,,,0.00,789.00,VWS V14.00,2015-07-30 16:26:00,
2015-07-30 11:31:00,80.5,64.4,30.11,West,277,0.0,12.0,58,0.00,,,0.00,800.00,VWS V14.00,2015-07-30 16:31:00,
2015-07-30 11:36:00,80.7,64.6,30.11,SSW,212,5.0,8.0,58,0.00,,,0.00,819.00,VWS V14.00,2015-07-30 16:36:00,
2015-07-30 11:41:00,80.9,64.8,30.11,NW,305,2.0,13.0,58,0.00,,,0.00,842.00,VWS V14.00,2015-07-30 16:41:00,
2015-07-30 11:46:00,81.3,66.1,30.12,NW,310,5.0,9.0,60,0.00,,,0.00,812.00,VWS V14.00,2015-07-30 16:46:00,
2015-07-30 11:51:00,81.6,67.3,30.11,NW,317,2.0,5.0,62,0.00,,,0.00,819.00,VWS V14.00,2015-07-30 16:51:00,
2015-07-30 11:56:00,82.1,67.3,30.11,West,265,7.0,11.0,61,0.00,,,0.00,828.00,VWS V14.00,2015-07-30 16:56:00,
2015-07-30 12:01:00,82.4,68.1,30.12,NNW,327,8.0,9.0,62,0.00,,,0.00,831.00,VWS V14.00,2015-07-30 17:01:00,
2015-07-30 12:06:00,82.6,67.8,30.11,NW,315,4.0,12.0,61,0.00,,,0.00,840.00,VWS V14.00,2015-07-30 17:06:00,
2015-07-30 12:11:00,82.7,66.9,30.12,WNW,303,3.0,8.0,59,0.00,,,0.00,844.00,VWS V14.00,2015-07-30 17:11:00,
2015-07-30 12:16:00,82.8,67.0,30.12,WNW,292,0.0,9.0,59,0.00,,,0.00,846.00,VWS V14.00,2015-07-30 17:16:00,
2015-07-30 12:21:00,82.7,66.9,30.12,WNW,294,0.0,8.0,59,0.00,,,0.00,849.00,VWS V14.00,2015-07-30 17:21:00,
2015-07-30 12:26:00,82.7,66.9,30.12,West,275,0.0,8.0,59,0.00,,,0.00,854.00,VWS V14.00,2015-07-30 17:26:00,
2015-07-30 12:31:00,82.7,68.8,30.12,NW,313,0.0,8.0,63,0.00,,,0.00,858.00,VWS V14.00,2015-07-30 17:31:00,
2015-07-30 12:46:00,83.2,66.4,30.11,WSW,250,0.0,9.0,57,0.00,,,0.00,868.00,VWS V14.00,2015-07-30 17:46:00,
2015-07-30 12:51:00,83.4,66.6,30.11,NW,306,0.0,7.0,57,0.00,,,0.00,870.00,VWS V14.00,2015-07-30 17:51:00,
2015-07-30 12:56:00,83.9,67.1,30.11,NW,304,0.0,7.0,57,0.00,,,0.00,867.00,VWS V14.00,2015-07-30 17:56:00,
2015-07-30 13:01:00,84.2,68.8,30.11,NW,313,2.0,6.0,60,0.00,,,0.00,868.00,VWS V14.00,2015-07-30 18:01:00,
2015-07-30 13:06:00,84.2,67.8,30.11,WNW,296,0.0,7.0,58,0.00,,,0.00,870.00,VWS V14.00,2015-07-30 18:06:00,
2015-07-30 13:16:00,84.1,67.7,30.11,WNW,288,2.0,13.0,58,0.00,,,0.00,872.00,VWS V14.00,2015-07-30 18:16:00,
2015-07-30 13:21:00,83.7,66.3,30.11,WSW,238,0.0,12.0,56,0.00,,,0.00,872.00,VWS V14.00,2015-07-30 18:21:00,
2015-07-30 13:26:00,83.5,68.7,30.10,West,270,2.0,11.0,61,0.00,,,0.00,877.00,VWS V14.00,2015-07-30 18:26:00,
2015-07-30 13:31:00,83.8,68.0,30.10,West,262,0.0,9.0,59,0.00,,,0.00,875.00,VWS V14.00,2015-07-30 18:31:00,
2015-07-30 13:36:00,84.0,69.1,30.10,NW,304,3.0,3.0,61,0.01,,,0.01,874.00,VWS V14.00,2015-07-30 18:36:00,
2015-07-30 13:41:00,84.3,67.4,30.10,NW,321,2.0,8.0,57,0.01,,,0.01,872.00,VWS V14.00,2015-07-30 18:41:00,
2015-07-30 13:46:00,84.5,69.6,30.10,WNW,294,0.0,9.0,61,0.01,,,0.01,874.00,VWS V14.00,2015-07-30 18:46:00,
2015-07-30 13:51:00,84.5,68.1,30.10,West,279,8.0,8.0,58,0.01,,,0.01,870.00,VWS V14.00,2015-07-30 18:51:00,
2015-07-30 13:56:00,84.4,67.5,30.10,West,279,0.0,14.0,57,0.01,,,0.01,870.00,VWS V14.00,2015-07-30 18:56:00,
2015-07-30 14:01:00,84.6,68.7,30.10,WSW,257,0.0,15.0,59,0.01,,,0.01,867.00,VWS V14.00,2015-07-30 19:01:00,
2015-07-30 14:06:00,84.8,67.4,30.10,SW,221,0.0,8.0,56,0.01,,,0.01,867.00,VWS V14.00,2015-07-30 19:06:00,
2015-07-30 14:16:00,85.3,69.4,30.09,West,272,0.0,12.0,59,0.01,,,0.01,854.00,VWS V14.00,2015-07-30 19:16:00,
2015-07-30 14:21:00,85.7,68.2,30.10,NW,315,0.0,10.0,56,0.01,,,0.01,858.00,VWS V14.00,2015-07-30 19:21:00,
2015-07-30 14:26:00,85.9,64.5,30.10,NW,304,0.0,0.0,49,0.01,,,0.01,854.00,VWS V14.00,2015-07-30 19:26:00,
2015-07-30 14:36:00,85.3,65.1,30.09,WSW,248,0.0,12.0,51,0.01,,,0.01,844.00,VWS V14.00,2015-07-30 19:36:00,
2015-07-30 14:41:00,85.3,65.1,30.09,WNW,300,0.0,0.0,51,0.00,,,0.01,835.00,VWS V14.00,2015-07-30 19:41:00,
2015-07-30 14:46:00,85.6,67.6,30.09,NW,318,4.0,7.0,55,0.00,,,0.01,824.00,VWS V14.00,2015-07-30 19:46:00,
2015-07-30 14:51:00,86.0,65.2,30.09,West,279,0.0,5.0,50,0.00,,,0.01,814.00,VWS V14.00,2015-07-30 19:51:00,
2015-07-30 14:56:00,85.9,66.2,30.09,WNW,295,0.0,0.0,52,0.00,,,0.01,810.00,VWS V14.00,2015-07-30 19:56:00,
2015-07-30 15:01:00,85.9,67.9,30.09,WNW,290,0.0,0.0,55,0.00,,,0.01,796.00,VWS V14.00,2015-07-30 20:01:00,
2015-07-30 15:06:00,86.4,68.9,30.08,WNW,298,0.0,0.0,56,0.00,,,0.01,793.00,VWS V14.00,2015-07-30 20:06:00,
2015-07-30 15:11:00,86.9,68.3,30.09,WNW,290,7.0,7.0,54,0.00,,,0.01,784.00,VWS V14.00,2015-07-30 20:11:00,
2015-07-30 15:16:00,87.0,64.3,30.09,West,264,5.0,7.0,47,0.00,,,0.01,786.00,VWS V14.00,2015-07-30 20:16:00,
2015-07-30 15:21:00,86.6,64.0,30.09,West,262,1.0,4.0,47,0.00,,,0.01,773.00,VWS V14.00,2015-07-30 20:21:00,
2015-07-30 15:26:00,86.1,64.7,30.08,WNW,288,4.0,4.0,49,0.00,,,0.01,758.00,VWS V14.00,2015-07-30 20:26:00,